Vorticity
7 5 -1 9 10 23 12 18 -0 9 2 -6 -12 -3 -3 5 -16 19 -2 -0 1 2 4 3 2 1 2 2 5 5 4 5 6 7 5 6 5 4 4 6 4 6 5 5 5 6 5 5 4
8 19 -7 5 8 -0 25 6 5 -1 12 15 22 -2 2 -1 4 8 3 2 2 4 3 2 2 2 3 4 5 5 5 5 6 7 8 6 6 7 6 6 6 5 6 5 6 7 5 5 7
9 6 4 -2 -3 29 9 1 9 1 2 -11 -2 19 2 13 16 5 4 4 2 2 2 2 3 5 6 8 10 9 7 5 4 4 5 6 7 6 7 7 5 7 6 6 6 7 5 5 4
5 16 7 12 6 6 5 -2 -5 -4 7 11 21 1 9 19 10 8 3 3 2 2 3 4 5 7 9 9 10 8 8 6 4 5 7 7 6 7 9 7 7 7 7 6 6 6 6 5 5
9 5 -1 6 29 -1 3 -3 -2 2 0 4 15 8 7 12 9 12 2 0 3 4 4 9 11 10 7 9 8 8 6 8 3 3 7 7 7 6 9 9 9 8 8 6 5 5 7 9 11
-2 14 18 10 17 7 2 2 7 1 -2 18 12 8 7 9 11 -6 5 3 4 6 11 10 8 7 7 9 9 9 7 4 4 4 7 6 9 9 8 8 10 8 7 6 5 6 7 10 9
17 21 -7 10 -2 2 0 3 4 -6 17 14 11 8 8 3 2 7 14 7 7 7 7 7 7 6 8 8 8 6 6 3 5 4 8 8 7 9 8 8 8 7 6 6 7 8 9 12 11
24 22 -25 9 12 6 -1 0 6 16 -8 16 10 7 5 4 -3 12 13 3 7 6 6 6 6 6 7 7 8 5 4 5 5 5 7 8 8 7 7 7 6 5 4 5 6 8 10 12 13
5 -11 -11 11 11 3 5 -10 -1 4 16 4 22 14 10 -2 -8 17 -5 6 4 8 4 4 5 6 6 5 8 7 6 5 10 9 5 4 5 6 6 5 5 5 5 7 10 11 10 8 7
17 24 10 5 12 11 -3 4 13 2 3 10 4 -1 3 11 3 5 7 9 10 9 8 5 6 5 6 6 6 10 5 1 4 7 6 6 7 4 7 7 5 3 4 1 3 9 12 7 6
-1 49 10 -8 5 23 1 30 1 -0 -6 18 -7 16 -7 -2 6 7 2 4 20 8 10 5 3 5 6 7 3 3 1 24 5 6 9 6 10 6 7 4 5 6 12 10 12 8 5 6 6
-0 20 -8 -12 -2 3 8 36 -3 -9 9 6 2 36 5 -8 7 2 -1 9 8 9 15 9 4 5 5 6 7 3 7 14 11 10 12 13 6 6 13 -5 -0 10 13 26 -5 4 6 6 5
6 9 40 -5 12 12 0 7 -2 -6 23 -0 2 7 3 7 7 -0 -2 -2 10 9 5 10 6 5 6 -2 7 6 9 4 1 -1 6 5 17 -3 10 13 7 21 16 9 14 2 14 5 6
-1 23 38 13 2 5 13 8 -1 -8 14 9 -2 11 5 9 2 -0 1 -7 24 11 1 10 6 9 23 4 6 5 7 5 7 7 4 4 14 0 23 -1 1 7 -0 4 8 11 10 8 7
13 10 28 -15 32 -27 19 26 7 30 0 4 4 -4 4 4 -2 4 3 13 13 16 9 5 10 14 14 5 3 6 -1 -0 21 -5 10 -1 17 10 18 12 18 11 -1 3 4 2 3 13 7
3 -2 -1 33 24 34 -15 9 15 -0 6 3 6 7 -0 6 4 -2 8 9 8 9 12 12 11 7 5 -3 11 3 3 4 7 1 11 11 10 12 6 9 -3 1 7 10 2 6 7 5 11
12 0 1 -12 27 -6 -13 11 7 -6 3 28 13 1 -0 2 1 1 6 -4 15 7 7 14 11 9 3 9 2 7 5 5 6 9 7 13 2 -3 14 12 5 18 -5 2 -2 2 3 5 5
8 3 6 -0 -4 22 5 -1 12 1 1 10 19 1 -0 8 -10 0 -6 2 9 1 9 19 12 9 4 2 6 5 9 6 7 7 7 9 5 16 8 1 8 3 5 18 -5 -6 -1 5 2
12 19 10 13 13 34 18 -8 39 6 -10 13 17 5 -2 9 -3 -3 10 3 3 6 8 22 13 9 7 2 5 7 13 6 5 6 4 7 2 -0 13 14 -3 27 -3 14 1 2 4 5 1
18 26 6 1 17 13 17 -3 4 9 12 -3 3 8 -7 6 -1 2 3 18 8 4 11 26 11 6 7 8 12 3 -4 13 8 5 5 5 5 10 6 21 8 8 11 -1 6 -5 11 1 -1
0 -1 23 14 23 7 -21 -2 -17 14 4 6 3 1 -2 6 4 1 0 19 2 5 14 15 12 5 2 4 2 8 7 7 8 4 8 10 7 7 9 1 10 8 13 8 6 7 3 6 0
12 13 23 25 -5 14 16 45 2 -4 8 4 -1 3 2 1 1 -6 3 7 9 13 14 16 14 8 7 11 4 4 7 12 1 7 7 6 6 7 2 13 7 9 14 13 8 11 5 0 6
-2 -10 24 -5 22 1 -1 9 47 26 31 20 1 4 5 -1 -4 -3 1 -6 1 9 6 14 15 8 6 5 3 3 6 -5 8 2 12 9 9 8 7 6 13 9 5 12 13 10 15 1 2
-4 28 -1 3 2 6 2 -7 7 29 49 -10 12 10 6 6 1 1 7 11 4 8 9 7 15 11 10 4 5 13 0 9 13 11 -5 -2 7 8 9 6 10 7 1 6 9 9 14 10 8
12 -6 7 9 12 -0 24 2 -9 -32 5 48 2 11 15 1 2 -9 -7 6 -9 1 2 7 6 14 11 7 9 10 1 -1 9 11 0 6 12 16 8 8 7 9 8 11 9 4 5 8 11
8 -17 12 6 8 3 40 1 22 -12 1 41 61 2 5 -4 5 3 3 5 6 4 3 0 13 13 10 10 6 8 6 4 2 7 -2 15 10 11 9 9 9 7 8 13 14 13 11 14 7
3 -13 5 -4 11 7 6 6 4 10 12 36 55 23 -2 -3 -4 -1 -2 -2 6 2 6 2 -14 16 11 13 7 7 4 7 8 6 20 -2 -5 -1 6 7 7 9 10 5 5 6 11 9 9
-4 11 16 -1 6 7 22 5 -17 0 8 9 7 39 2 18 -3 7 4 3 2 -3 15 15 9 3 13 11 5 6 6 7 7 6 4 11 9 26 21 6 5 10 11 13 13 12 8 16 15
3 -4 1 5 -3 4 7 12 22 20 11 12 9 30 20 43 -2 11 -1 -3 -1 4 15 -2 -0 16 1 14 11 6 5 5 6 5 7 9 -5 9 -7 26 8 12 9 9 9 9 12 17 17
17 20 11 -2 -5 -9 14 6 29 8 20 -10 9 0 9 29 58 3 16 4 16 8 7 8 5 12 -9 23 -1 16 14 8 10 8 9 5 8 7 4 11 6 7 8 5 7 6 7 7 6
Height
3169 3170 3171 3168 3173 3170 3172 3175 3174 3176 3179 3179 3181 3183 3183 3182 3183 3187 3184 3186 3188 3190 3191 3194 3195 3197 3199 3200 3200 3201 3200 3200 3200 3200 3200 3200 3201 3202 3202 3202 3202 3203 3203 3202 3202 3203 3203 3203 3204
3170 3171 3172 3170 3172 3172 3176 3177 3176 3178 3179 3181 3182 3184 3184 3183 3184 3184 3184 3187 3190 3192 3194 3196 3197 3198 3200 3201 3201 3202 3201 3201 3202 3202 3203 3204 3204 3204 3205 3205 3205 3206 3205 3205 3205 3205 3206 3206 3207
3171 3172 3174 3174 3172 3174 3176 3178 3176 3179 3180 3182 3182 3185 3185 3185 3187 3186 3189 3189 3192 3195 3196 3198 3199 3200 3201 3202 3202 3203 3203 3204 3205 3205 3206 3207 3208 3207 3207 3208 3208 3209 3209 3209 3209 3208 3208 3209 3210
3173 3176 3176 3176 3176 3178 3177 3179 3179 3180 3182 3182 3183 3184 3186 3190 3189 3190 3191 3192 3195 3197 3198 3200 3201 3202 3202 3203 3204 3204 3204 3206 3208 3208 3209 3209 3209 3209 3209 3209 3210 3211 3211 3211 3211 3211 3211 3212 3212
3174 3173 3176 3177 3179 3180 3179 3182 3182 3182 3182 3183 3184 3183 3186 3191 3194 3193 3194 3195 3198 3200 3200 3201 3202 3203 3204 3204 3205 3206 3208 3208 3209 3209 3210 3211 3211 3211 3211 3211 3212 3213 3213 3213 3213 3213 3214 3215 3214
3174 3174 3177 3178 3181 3180 3180 3182 3183 3184 3184 3184 3185 3183 3187 3193 3195 3195 3197 3197 3199 3201 3202 3202 3203 3205 3206 3207 3207 3208 3209 3210 3211 3212 3212 3213 3213 3213 3213 3214 3214 3215 3216 3216 3215 3215 3215 3216 3216
3175 3175 3175 3177 3181 3181 3182 3183 3184 3186 3186 3186 3185 3184 3188 3191 3194 3196 3197 3199 3201 3202 3203 3204 3205 3207 3208 3208 3209 3210 3211 3212 3212 3214 3214 3214 3215 3215 3216 3216 3216 3217 3218 3218 3219 3219 3218 3217 3218
3175 3177 3176 3179 3181 3182 3183 3184 3185 3187 3188 3188 3188 3186 3187 3193 3197 3198 3200 3202 3203 3204 3205 3206 3207 3208 3209 3209 3211 3212 3213 3214 3215 3215 3216 3217 3218 3217 3217 3218 3218 3218 3218 3218 3219 3220 3221 3220 3221
3175 3176 3176 3178 3181 3183 3185 3185 3188 3189 3189 3190 3190 3190 3191 3194 3198 3200 3201 3202 3204 3204 3206 3207 3209 3209 3210 3212 3213 3214 3214 3215 3216 3217 3217 3218 3219 3219 3218 3219 3221 3222 3222 3223 3223 3224 3224 3223 3224
3174 3170 3174 3176 3178 3181 3184 3187 3188 3189 3190 3192 3191 3193 3194 3196 3198 3200 3202 3203 3204 3205 3207 3209 3210 3211 3212 3214 3215 3215 3218 3217 3217 3218 3219 3220 3220 3220 3222 3222 3222 3222 3224 3224 3226 3227 3228 3229 3228
3174 3169 3173 3175 3177 3179 3185 3186 3188 3188 3190 3191 3190 3192 3196 3198 3199 3200 3203 3205 3205 3207 3208 3209 3211 3212 3214 3216 3217 3218 3219 3219 3219 3220 3222 3223 3223 3223 3224 3225 3226 3226 3226 3226 3228 3229 3231 3232 3232
3171 3172 3171 3174 3176 3179 3181 3185 3187 3187 3190 3192 3193 3195 3198 3200 3201 3203 3205 3206 3206 3207 3209 3210 3212 3213 3215 3217 3218 3220 3221 3223 3223 3225 3224 3224 3225 3226 3227 3228 3229 3229 3231 3230 3229 3232 3234 3236 3236
3171 3170 3168 3170 3173 3177 3182 3186 3186 3189 3191 3192 3194 3196 3198 3201 3204 3206 3206 3206 3207 3208 3209 3212 3213 3215 3217 3219 3221 3223 3223 3225 3225 3227 3227 3226 3226 3230 3229 3230 3231 3231 3232 3233 3234 3235 3237 3239 3239
3170 3163 3160 3168 3172 3177 3181 3183 3185 3188 3191 3193 3193 3196 3199 3202 3204 3205 3206 3207 3208 3209 3210 3211 3213 3216 3218 3221 3223 3224 3226 3226 3227 3228 3230 3231 3230 3232 3232 3233 3233 3232 3233 3233 3236 3237 3238 3240 3241
3168 3168 3168 3169 3163 3176 3180 3183 3184 3187 3192 3194 3196 3199 3201 3204 3205 3206 3207 3210 3211 3212 3213 3212 3214 3217 3220 3221 3224 3226 3227 3227 3227 3229 3231 3233 3234 3234 3234 3234 3235 3237 3237 3239 3239 3239 3239 3243 3244
3168 3168 3170 3160 3172 3174 3178 3182 3184 3186 3191 3194 3198 3200 3202 3204 3206 3208 3208 3211 3212 3213 3214 3214 3215 3218 3220 3222 3225 3227 3228 3229 3230 3232 3232 3233 3236 3236 3235 3237 3240 3239 3240 3241 3243 3244 3245 3246 3246
3169 3166 3163 3160 3169 3172 3177 3181 3186 3188 3192 3194 3197 3200 3202 3204 3204 3207 3209 3211 3212 3214 3215 3216 3216 3219 3220 3221 3224 3228 3229 3231 3232 3234 3235 3236 3238 3238 3239 3240 3241 3243 3243 3244 3246 3246 3247 3248 3249
3169 3169 3167 3166 3170 3173 3174 3179 3185 3189 3191 3194 3197 3200 3200 3203 3204 3207 3209 3211 3213 3214 3215 3217 3218 3218 3221 3222 3224 3228 3231 3232 3233 3235 3236 3237 3239 3240 3241 3243 3243 3243 3246 3247 3248 3248 3248 3249 3249
3169 3167 3166 3167 3169 3172 3174 3178 3181 3185 3189 3194 3196 3199 3200 3203 3204 3207 3209 3212 3214 3215 3217 3217 3219 3220 3222 3224 3225 3229 3232 3233 3234 3236 3236 3239 3239 3240 3241 3244 3246 3247 3248 3247 3249 3249 3251 3251 3251
3169 3169 3170 3169 3167 3171 3175 3175 3179 3182 3185 3190 3194 3198 3201 3203 3204 3207 3209 3212 3214 3215 3217 3218 3219 3220 3222 3225 3227 3230 3231 3233 3235 3236 3237 3239 3240 3240 3241 3243 3245 3246 3249 3248 3249 3250 3251 3252 3253
3169 3173 3172 3171 3169 3169 3173 3173 3174 3178 3181 3185 3190 3193 3198 3201 3202 3206 3208 3211 3213 3215 3216 3218 3219 3220 3222 3225 3227 3230 3232 3233 3235 3236 3237 3238 3239 3241 3241 3243 3244 3246 3247 3248 3249 3250 3252 3252 3252
3165 3169 3170 3172 3170 3168 3171 3168 3169 3174 3178 3182 3187 3190 3194 3199 3200 3204 3207 3209 3212 3215 3217 3217 3219 3220 3222 3225 3227 3230 3232 3234 3235 3235 3237 3238 3239 3240 3242 3243 3244 3245 3246 3247 3249 3250 3251 3252 3251
3165 3167 3169 3172 3171 3173 3170 3167 3169 3170 3173 3177 3183 3186 3191 3195 3197 3200 3204 3208 3212 3215 3216 3216 3218 3220 3222 3225 3227 3230 3231 3233 3235 3236 3237 3238 3238 3240 3240 3241 3242 3244 3245 3247 3248 3250 3250 3250 3250
3162 3165 3170 3172 3174 3173 3168 3169 3164 3165 3169 3175 3179 3182 3186 3190 3193 3198 3202 3206 3210 3213 3215 3216 3217 3220 3221 3224 3226 3228 3231 3232 3234 3235 3235 3237 3237 3238 3240 3240 3241 3242 3244 3246 3247 3249 3249 3248 3249
3162 3165 3172 3178 3176 3171 3167 3170 3163 3165 3168 3172 3174 3176 3182 3187 3189 3194 3198 3202 3206 3209 3213 3215 3216 3218 3221 3223 3224 3227 3229 3230 3233 3234 3235 3235 3236 3238 3240 3240 3240 3242 3243 3244 3245 3246 3247 3247 3248
3160 3161 3166 3172 3172 3168 3166 3165 3157 3158 3159 3157 3159 3170 3178 3183 3187 3189 3193 3199 3203 3207 3210 3213 3214 3216 3218 3221 3223 3226 3227 3228 3231 3232 3233 3234 3235 3237 3238 3239 3240 3241 3241 3242 3243 3243 3245 3245 3245
3158 3158 3161 3163 3164 3165 3163 3158 3154 3152 3151 3152 3153 3162 3171 3177 3181 3187 3190 3195 3200 3203 3206 3210 3213 3214 3215 3218 3221 3224 3225 3228 3231 3231 3232 3234 3235 3236 3236 3236 3238 3239 3240 3240 3241 3242 3243 3244 3244
3153 3157 3160 3160 3163 3163 3159 3157 3151 3148 3148 3150 3154 3162 3168 3172 3179 3184 3188 3191 3195 3200 3205 3207 3211 3213 3214 3216 3218 3221 3223 3227 3228 3229 3231 3233 3233 3232 3232 3234 3236 3237 3238 3239 3239 3240 3241 3241 3241
3152 3152 3155 3156 3155 3154 3158 3152 3146 3148 3149 3151 3156 3159 3162 3167 3173 3179 3183 3188 3190 3195 3200 3204 3207 3210 3211 3213 3215 3218 3219 3223 3226 3228 3229 3230 3230 3231 3231 3232 3235 3236 3237 3237 3237 3238 3239 3239 3240
3146 3151 3152 3151 3153 3151 3152 3149 3146 3148 3151 3156 3156 3159 3160 3163 3166 3174 3179 3184 3186 3190 3194 3198 3202 3206 3208 3210 3212 3214 3215 3218 3221 3225 3228 3228 3229 3229 3229 3231 3233 3235 3236 3236 3236 3236 3237 3236 3237